Location: El Mouella
(16.4949°N, 9.1594°W)
Time: 15:11:23
(UTC+00:00)

Cosmos 1464 Rocket - Pass Details

Date: 02 June 2020
Orbit: 953 x 1001 km, 82.9° (Epoch: 04 July)

Event Time Altitude Azimuth Distance (km) Brightness Sun altitude
Rises 19:29:53 0° 6° (N) 3,717 7.3 -5.9°
Reaches altitude 10° 19:32:33 10° 12° (NNE) 2,767 6.6 -6.5°
Maximum altitude 19:38:36 45° 84° (E) 1,323 4.4 -7.8°
Drops below altitude 10° 19:44:36 10° 156° (SSE) 2,750 5.9 -9.1°
Sets 19:47:13 0° 162° (SSE) 3,692 6.6 -9.7°
